Location: Drocourt
(49.0571°N, 1.7669°E)
Time: 22:56:40
(UTC+00:00)

SR - Pass Details

Date: 17 April 2024
Orbit: 579 x 859 km, 66.7° (Epoch: 25 May)

Event Time Altitude Azimuth Distance (km) Brightness Sun altitude
Rises 04:04:42 0° 249° (WSW) 3,324 - -8.8°
Exits shadow 04:07:18 - 259° (W) 2,420 ? -8.4°
Reaches altitude 10° 04:07:30 10° 260° (W) 2,355 ? -8.4°
Maximum altitude 04:12:11 29° 320° (NW) 1,353 ? -7.7°
Drops below altitude 10° 04:16:35 10° 21° (NNE) 2,201 ? -7.0°
Sets 04:19:08 0° 33° (NNE) 3,073 ? -6.6°
